| time (UTC) | temp F | wind direction | speed MPH | gust MPH | rain 1hr in | rain 24hr in | rain mn in | humidity % | barometer mb |
| 20260905202841 | 54 | 176 | 2.0 | 5.0 | 0.00 | 0.02 | 0.00 | 94 | 989.5 |
| 20260905201840 | 56 | 78 | 3.0 | 8.0 | 0.00 | 0.00 | 0.00 | 88 | 989.4 |
| 20260905200839 | 58 | 46 | 1.0 | 6.0 | 0.00 | 0.00 | 0.00 | 75 | 988.9 |
| 20260905195838 | 58 | 270 | 0.0 | 0.0 | 0.00 | 0.00 | 0.00 | 75 | 988.2 |
| 20260905194836 | 58 | 252 | 0.0 | 0.0 | 0.00 | 0.00 | 0.00 | 74 | 988.2 |
| 20260905193835 | 59 | 227 | 0.0 | 3.0 | 0.00 | 0.00 | 0.00 | 75 | 988.2 |
| 20260905192834 | 58 | 150 | 0.0 | 4.0 | 0.00 | 0.00 | 0.00 | 74 | 988.2 |
| 20260905191833 | 58 | 282 | 0.0 | 0.0 | 0.00 | 0.00 | 0.00 | 76 | 988.3 |
| 20260905190831 | 58 | 275 | 0.0 | 0.0 | 0.00 | 0.00 | 0.00 | 76 | 988.4 |
| 20260905185831 | 59 | 270 | 0.0 | 2.0 | 0.00 | 0.00 | 0.00 | 75 | 988.4 |
| 20260905184830 | 59 | 294 | 0.0 | 0.0 | 0.00 | 0.00 | 0.00 | 74 | 988.3 |
| 20260905183828 | 59 | 96 | 0.0 | 1.0 | 0.00 | 0.00 | 0.00 | 72 | 988.2 |
| 20260905182827 | 59 | 187 | 0.0 | 0.0 | 0.00 | 0.00 | 0.00 | 72 | 988.1 |
| 20260905181826 | 59 | 270 | 0.0 | 0.0 | 0.00 | 0.00 | 0.00 | 71 | 988.1 |
| 20260905180825 | 59 | 258 | 0.0 | 0.0 | 0.00 | 0.00 | 0.00 | 71 | 988.1 |
| 20260905175824 | 59 | 276 | 0.0 | 0.0 | 0.00 | 0.00 | 0.00 | 69 | 987.9 |
| 20260905174823 | 60 | 270 | 0.0 | 2.0 | 0.00 | 0.00 | 0.00 | 69 | 987.9 |
| 20260905173822 | 61 | 115 | 0.0 | 3.0 | 0.00 | 0.00 | 0.00 | 67 | 987.8 |
| 20260905172821 | 62 | 343 | 1.0 | 5.0 | 0.00 | 0.00 | 0.00 | 66 | 987.7 |
| 20260905171820 | 62 | 120 | 0.0 | 2.0 | 0.00 | 0.00 | 0.00 | 65 | 987.7 |
| 20260905170819 | 62 | 97 | 0.0 | 2.0 | 0.00 | 0.00 | 0.00 | 64 | 987.6 |
| 20260905165817 | 64 | 95 | 1.0 | 4.0 | 0.00 | 0.00 | 0.00 | 60 | 987.6 |
| 20260905164817 | 64 | 57 | 0.0 | 4.0 | 0.00 | 0.00 | 0.00 | 62 | 987.7 |
| 20260905163815 | 64 | 287 | 0.0 | 3.0 | 0.00 | 0.00 | 0.00 | 63 | 987.5 |
| 20260905162814 | 65 | 258 | 0.0 | 4.0 | 0.00 | 0.00 | 0.00 | 64 | 987.4 |
| 20260905161813 | 65 | 264 | 0.0 | 1.0 | 0.00 | 0.00 | 0.00 | 64 | 987.3 |
| 20260905160812 | 65 | 52 | 0.0 | 2.0 | 0.00 | 0.00 | 0.00 | 59 | 987.3 |
| 20260905155811 | 65 | 108 | 1.0 | 4.0 | 0.00 | 0.00 | 0.00 | 61 | 987.2 |
| 20260905154810 | 66 | 318 | 1.0 | 5.0 | 0.00 | 0.00 | 0.00 | 58 | 987.1 |
| 20260905153809 | 66 | 252 | 1.0 | 6.0 | 0.00 | 0.00 | 0.00 | 57 | 987.2 |
| 20260905152808 | 66 | 226 | 1.0 | 7.0 | 0.00 | 0.00 | 0.00 | 58 | 987.0 |
| 20260905151807 | 66 | 181 | 1.0 | 6.0 | 0.00 | 0.00 | 0.00 | 57 | 987.0 |
| 20260905150805 | 67 | 19 | 1.0 | 5.0 | 0.00 | 0.00 | 0.00 | 58 | 986.9 |
| 20260905145804 | 67 | 204 | 1.0 | 6.0 | 0.00 | 0.00 | 0.00 | 60 | 987.0 |
| 20260905144803 | 68 | 221 | 1.0 | 6.0 | 0.00 | 0.00 | 0.00 | 55 | 987.0 |
| 20260905143802 | 67 | 180 | 2.0 | 10.0 | 0.00 | 0.00 | 0.00 | 57 | 987.0 |
| 20260905142802 | 67 | 96 | 2.0 | 6.0 | 0.00 | 0.00 | 0.00 | 57 | 987.0 |
| 20260905141800 | 67 | 300 | 2.0 | 7.0 | 0.00 | 0.00 | 0.00 | 58 | 987.1 |
| 20260905140759 | 69 | 174 | 1.0 | 5.0 | 0.00 | 0.00 | 0.00 | 57 | 986.9 |
| 20260905135758 | 67 | 232 | 1.0 | 5.0 | 0.00 | 0.00 | 0.00 | 58 | 987.0 |
| 20260905134757 | 67 | 175 | 2.0 | 7.0 | 0.00 | 0.00 | 0.00 | 58 | 986.9 |
| 20260905133756 | 67 | 82 | 3.0 | 10.0 | 0.00 | 0.00 | 0.00 | 58 | 986.9 |
| 20260905132755 | 68 | 162 | 2.0 | 11.0 | 0.00 | 0.00 | 0.00 | 56 | 986.8 |
| 20260905131753 | 66 | 28 | 2.0 | 6.0 | 0.00 | 0.00 | 0.00 | 59 | 986.9 |
| 20260905130752 | 67 | 126 | 2.0 | 10.0 | 0.00 | 0.00 | 0.00 | 58 | 986.6 |
| 20260905125751 | 69 | 78 | 2.0 | 9.0 | 0.00 | 0.00 | 0.00 | 56 | 986.6 |
| 20260905124750 | 67 | 208 | 2.0 | 7.0 | 0.00 | 0.00 | 0.00 | 56 | 986.8 |
| 20260905123749 | 67 | 220 | 2.0 | 6.0 | 0.00 | 0.00 | 0.00 | 56 | 986.8 |
| 20260905122749 | 70 | 174 | 2.0 | 9.0 | 0.00 | 0.00 | 0.00 | 53 | 986.5 |
| 20260905121747 | 70 | 299 | 4.0 | 9.0 | 0.00 | 0.00 | 0.00 | 53 | 986.5 |
| 20260905120746 | 70 | 269 | 3.0 | 7.0 | 0.00 | 0.00 | 0.00 | 53 | 986.6 |
| 20260905115745 | 70 | 48 | 2.0 | 10.0 | 0.00 | 0.00 | 0.00 | 54 | 986.5 |
| 20260905114743 | 70 | 332 | 2.0 | 7.0 | 0.00 | 0.00 | 0.00 | 53 | 986.5 |
| 20260905113742 | 71 | 294 | 3.0 | 6.0 | 0.00 | 0.00 | 0.00 | 53 | 986.3 |
| 20260905112741 | 70 | 186 | 3.0 | 7.0 | 0.00 | 0.00 | 0.00 | 55 | 986.4 |
| 20260905111740 | 68 | 298 | 3.0 | 9.0 | 0.00 | 0.00 | 0.00 | 61 | 986.5 |
| 20260905110740 | 67 | 240 | 2.0 | 5.0 | 0.00 | 0.00 | 0.00 | 62 | 986.5 |
| 20260905105738 | 66 | 52 | 3.0 | 7.0 | 0.00 | 0.00 | 0.00 | 65 | 986.6 |
| 20260905104737 | 69 | 134 | 3.0 | 6.0 | 0.00 | 0.00 | 0.00 | 59 | 986.4 |
| 20260905103736 | 69 | 164 | 2.0 | 6.0 | 0.00 | 0.00 | 0.00 | 58 | 986.4 |
| 20260905102735 | 66 | 353 | 2.0 | 7.0 | 0.00 | 0.00 | 0.00 | 65 | 986.4 |
| 20260905101734 | 66 | 5 | 3.0 | 11.0 | 0.00 | 0.00 | 0.00 | 65 | 986.4 |
| 20260905100733 | 66 | 101 | 2.0 | 6.0 | 0.00 | 0.00 | 0.00 | 65 | 986.4 |
| 20260905095732 | 67 | 348 | 2.0 | 6.0 | 0.00 | 0.00 | 0.00 | 65 | 986.3 |
| 20260905094731 | 67 | 263 | 3.0 | 8.0 | 0.00 | 0.00 | 0.00 | 65 | 986.2 |
| 20260905093730 | 64 | 72 | 2.0 | 6.0 | 0.00 | 0.00 | 0.00 | 70 | 986.3 |
| 20260905092730 | 65 | 0 | 2.0 | 5.0 | 0.00 | 0.00 | 0.00 | 71 | 986.2 |
| 20260905091728 | 65 | 278 | 2.0 | 6.0 | 0.00 | 0.00 | 0.00 | 71 | 986.1 |
| 20260905090727 | 65 | 349 | 2.0 | 6.0 | 0.00 | 0.00 | 0.00 | 73 | 986.1 |
| 20260905085726 | 64 | 78 | 1.0 | 4.0 | 0.00 | 0.00 | 0.00 | 70 | 986.2 |
| 20260905084726 | 64 | 284 | 2.0 | 12.0 | 0.00 | 0.00 | 0.00 | 76 | 986.1 |
| 20260905083724 | 65 | 336 | 2.0 | 10.0 | 0.00 | 0.00 | 0.00 | 75 | 986.1 |
| 20260905082723 | 64 | 270 | 2.0 | 6.0 | 0.00 | 0.00 | 0.00 | 74 | 986.2 |
| 20260905081723 | 62 | 250 | 2.0 | 5.0 | 0.00 | 0.00 | 0.00 | 80 | 986.0 |
| 20260905080722 | 64 | 67 | 2.0 | 6.0 | 0.00 | 0.00 | 0.00 | 79 | 985.9 |
| 20260905075721 | 64 | 35 | 2.0 | 6.0 | 0.00 | 0.00 | 0.00 | 78 | 985.8 |
| 20260905074720 | 63 | 186 | 2.0 | 10.0 | 0.00 | 0.00 | 0.00 | 81 | 985.9 |
| 20260905073719 | 63 | 244 | 2.0 | 6.0 | 0.00 | 0.00 | 0.00 | 82 | 985.7 |
| 20260905072718 | 62 | 283 | 1.0 | 5.0 | 0.00 | 0.00 | 0.00 | 83 | 985.7 |
| 20260905071717 | 61 | 98 | 1.0 | 4.0 | 0.00 | 0.00 | 0.00 | 89 | 985.7 |
| 20260905070716 | 61 | 282 | 1.0 | 4.0 | 0.00 | 0.00 | 0.00 | 87 | 985.4 |
| 20260905065715 | 61 | 110 | 1.0 | 5.0 | 0.00 | 0.00 | 0.00 | 90 | 985.2 |
| 20260905064714 | 60 | 193 | 1.0 | 6.0 | 0.00 | 0.00 | 0.00 | 90 | 985.3 |
| 20260905063713 | 60 | 10 | 2.0 | 5.0 | 0.00 | 0.00 | 0.00 | 91 | 985.2 |
| 20260905062712 | 60 | 270 | 1.0 | 7.0 | 0.00 | 0.00 | 0.00 | 92 | 985.1 |
| 20260905061711 | 60 | 306 | 1.0 | 4.0 | 0.00 | 0.00 | 0.00 | 94 | 984.9 |
| 20260905060710 | 59 | 274 | 1.0 | 5.0 | 0.00 | 0.01 | 0.00 | 95 | 984.8 |
| 20260905055709 | 59 | 46 | 1.0 | 4.0 | 0.00 | 0.01 | 0.00 | 96 | 984.3 |
| 20260905054708 | 59 | 264 | 1.0 | 5.0 | 0.00 | 0.00 | 0.00 | 96 | 984.5 |
| 20260905053706 | 59 | 16 | 1.0 | 4.0 | 0.00 | 0.00 | 0.00 | 96 | 984.4 |
| 20260905052705 | 59 | 328 | 1.0 | 4.0 | 0.00 | 0.00 | 0.00 | 96 | 984.4 |
| 20260905051705 | 59 | 97 | 1.0 | 3.0 | 0.00 | 0.00 | 0.00 | 96 | 984.3 |
| 20260905050703 | 59 | 24 | 1.0 | 6.0 | 0.00 | 0.00 | 0.00 | 96 | 984.2 |
| 20260905045703 | 59 | 199 | 1.0 | 7.0 | 0.00 | 0.00 | 0.00 | 96 | 984.4 |
| 20260905044701 | 59 | 270 | 2.0 | 9.0 | 0.00 | 0.00 | 0.00 | 95 | 983.8 |
| 20260905043700 | 59 | 126 | 1.0 | 6.0 | 0.00 | 0.00 | 0.00 | 96 | 983.9 |
| 20260905042659 | 59 | 306 | 1.0 | 5.0 | 0.00 | 0.00 | 0.00 | 97 | 983.9 |
| 20260905041658 | 59 | 60 | 1.0 | 6.0 | 0.00 | 0.00 | 0.00 | 96 | 983.8 |
| 20260905040657 | 59 | 114 | 1.0 | 7.0 | 0.00 | 0.00 | 0.00 | 97 | 983.3 |
| 20260905035656 | 59 | 142 | 2.0 | 6.0 | 0.00 | 0.00 | 0.00 | 96 | 983.2 |
| 20260905034655 | 59 | 90 | 1.0 | 4.0 | 0.00 | 0.00 | 0.00 | 97 | 982.9 |
| 20260905033654 | 59 | 240 | 1.0 | 5.0 | 0.00 | 0.00 | 0.00 | 98 | 983.0 |
| 20260905032653 | 59 | 276 | 2.0 | 6.0 | 0.00 | 0.00 | 0.00 | 98 | 982.8 |
| 20260905031652 | 59 | 48 | 1.0 | 5.0 | 0.00 | 0.00 | 0.00 | 98 | 983.0 |
| 20260905030651 | 59 | 108 | 1.0 | 5.0 | 0.00 | 0.00 | 0.00 | 99 | 982.8 |
| 20260905025650 | 59 | 344 | 1.0 | 5.0 | 0.00 | 0.00 | 0.00 | 97 | 982.7 |
| 20260905024649 | 59 | 36 | 1.0 | 5.0 | 0.00 | 0.00 | 0.00 | 98 | 982.8 |
| 20260905023648 | 59 | 30 | 1.0 | 5.0 | 0.00 | 0.00 | 0.00 | 98 | 982.9 |
| 20260905022646 | 59 | 246 | 1.0 | 10.0 | 0.00 | 0.00 | 0.00 | 98 | 982.5 |
| 20260905021645 | 59 | 66 | 1.0 | 6.0 | 0.00 | 0.00 | 0.00 | 99 | 982.9 |
| 20260905020644 | 59 | 244 | 1.0 | 5.0 | 0.00 | 0.00 | 0.00 | 99 | 982.1 |
| 20260905015643 | 59 | 240 | 1.0 | 5.0 | 0.00 | 0.00 | 0.00 | 99 | 982.2 |
| 20260905014643 | 59 | 114 | 1.0 | 5.0 | 0.00 | 0.00 | 0.00 | 98 | 982.3 |
| 20260905013641 | 59 | 137 | 1.0 | 4.0 | 0.00 | 0.00 | 0.00 | 98 | 982.5 |
| 20260905012640 | 59 | 116 | 1.0 | 4.0 | 0.00 | 0.00 | 0.00 | 98 | 982.1 |
| 20260905011639 | 59 | 78 | 1.0 | 6.0 | 0.00 | 0.01 | 0.00 | 98 | 982.4 |
| 20260905010639 | 59 | 204 | 1.0 | 6.0 | 0.00 | 0.02 | 0.00 | 97 | 982.2 |
| 20260905005638 | 59 | 98 | 1.0 | 6.0 | 0.00 | 0.01 | 0.00 | 98 | 982.5 |
| 20260905004636 | 60 | 306 | 1.0 | 6.0 | 0.00 | 0.00 | 0.00 | 97 | 981.9 |
| 20260905003635 | 60 | 24 | 1.0 | 5.0 | 0.00 | 0.00 | 0.00 | 96 | 981.9 |
| 20260905002635 | 60 | 126 | 1.0 | 10.0 | 0.00 | 0.01 | 0.00 | 95 | 981.6 |
| 20260905001633 | 61 | 132 | 1.0 | 6.0 | 0.00 | 0.01 | 0.00 | 97 | 981.8 |
| 20260905000632 | 61 | 234 | 1.0 | 4.0 | 0.00 | 0.00 | 0.00 | 97 | 981.8 |
| 20260904235631 | 61 | 338 | 1.0 | 4.0 | 0.00 | 0.02 | 0.00 | 97 | 981.4 |
| 20260904234630 | 62 | 237 | 1.0 | 4.0 | 0.00 | 0.03 | 0.00 | 95 | 981.2 |
| 20260904233629 | 63 | 293 | 2.0 | 6.0 | 0.00 | 0.03 | 0.00 | 95 | 981.1 |
| 20260904232628 | 63 | 166 | 2.0 | 5.0 | 0.00 | 0.02 | 0.00 | 95 | 981.1 |
| 20260904231627 | 64 | 288 | 1.0 | 6.0 | 0.00 | 0.00 | 0.00 | 93 | 981.2 |
| 20260904230626 | 64 | 76 | 1.0 | 4.0 | 0.00 | 0.00 | 0.00 | 93 | 980.9 |
| 20260904225624 | 65 | 300 | 1.0 | 3.0 | 0.00 | 0.00 | 0.00 | 91 | 980.3 |
| 20260904224624 | 65 | 251 | 1.0 | 6.0 | 0.00 | 0.00 | 0.00 | 89 | 980.5 |
| 20260904223622 | 65 | 318 | 0.0 | 2.0 | 0.00 | 0.00 | 0.00 | 89 | 980.4 |
| 20260904222621 | 66 | 72 | 1.0 | 4.0 | 0.00 | 0.00 | 0.00 | 88 | 980.3 |
| 20260904221620 | 67 | 160 | 1.0 | 5.0 | 0.00 | 0.00 | 0.00 | 86 | 980.4 |
| 20260904220619 | 67 | 204 | 2.0 | 6.0 | 0.00 | 0.00 | 0.00 | 84 | 980.7 |
| 20260904215618 | 68 | 268 | 1.0 | 6.0 | 0.00 | 0.00 | 0.00 | 82 | 980.8 |
| 20260904214617 | 70 | 158 | 1.0 | 7.0 | 0.00 | 0.00 | 0.00 | 77 | 980.3 |
| 20260904213616 | 71 | 353 | 3.0 | 7.0 | 0.00 | 0.00 | 0.00 | 75 | 980.2 |
| 20260904212615 | 72 | 113 | 3.0 | 6.0 | 0.00 | 0.00 | 0.00 | 71 | 980.2 |
| 20260904211614 | 75 | 78 | 3.0 | 7.0 | 0.00 | 0.00 | 0.00 | 64 | 979.9 |
| 20260904210612 | 74 | 94 | 4.0 | 13.0 | 0.00 | 0.00 | 0.00 | 64 | 979.5 |
| 20260904205612 | 73 | 85 | 2.0 | 10.0 | 0.00 | 0.00 | 0.00 | 65 | 979.1 |
| 20260904204610 | 73 | 90 | 2.0 | 5.0 | 0.00 | 0.00 | 0.00 | 67 | 978.5 |
| 20260904203610 | 72 | 197 | 2.0 | 6.0 | 0.00 | 0.00 | 0.00 | 68 | 978.5 |